GW6590 Weather Reports


time (UTC)temp
C
wind
direction
speed
KPH
gust
KPH
rain 1hr
cm
rain 24hr
cm
rain mn
cm
humidity
%
barometer
mb
20260502152334 11 169 0.0 0.0 0.00 0.10 0.10 71 1027.9
20260502151832 11 170 1.6 3.2 0.00 0.10 0.10 72 1027.9
20260502151328 11 169 1.6 1.6 0.00 0.10 0.10 72 1027.9
20260502150826 11 169 0.0 0.0 0.00 0.10 0.10 73 1028.1
20260502150322 11 169 0.0 0.0 0.00 0.10 0.10 73 1028.1
20260502130710 10 168 3.2 3.2 0.00 0.10 0.10 84 1028.0
20260502130208 10 168 0.0 0.0 0.00 0.10 0.10 88 1027.9
20260502123654 9 167 0.0 1.6 0.00 0.10 0.10 92 1028.3
20260502123150 8 164 4.8 4.8 0.00 0.10 0.10 92 1028.3
20260502122647 8 165 3.2 3.2 0.00 0.10 0.10 93 1028.7
20260502122143 8 168 0.0 1.6 0.00 0.10 0.10 93 1028.8
20260502121642 8 167 0.0 1.6 0.00 0.10 0.10 93 1028.6
20260502121139 8 166 3.2 3.2 0.00 0.10 0.10 94 1028.7
20260502120635 8 166 3.2 3.2 0.00 0.10 0.10 94 1028.8
20260502120132 8 168 1.6 1.6 0.00 0.10 0.10 94 1028.8
20260502115630 8 169 1.6 1.6 0.18 0.10 0.10 94 1028.6
20260502115126 8 169 1.6 1.6 0.18 0.10 0.10 94 1028.7
20260502114622 8 170 0.0 0.0 0.00 0.08 0.08 94 1028.6
20260502114120 8 171 0.0 1.6 0.00 0.08 0.08 93 1028.6
20260502113617 8 173 0.0 0.0 0.00 0.08 0.08 93 1028.7
20260502113115 8 173 1.6 1.6 0.13 0.08 0.08 93 1029.0
20260502112613 8 174 0.0 0.0 0.30 0.08 0.08 93 1029.1
20260502112110 8 173 0.0 0.0 0.18 0.05 0.05 93 1028.8
20260502111607 8 177 0.0 0.0 0.00 0.03 0.03 93 1029.1
20260502111104 8 162 0.0 0.0 0.00 0.03 0.03 93 1028.9
20260502110602 8 179 0.0 0.0 0.00 0.03 0.03 93 1029.0
20260502110059 8 182 1.6 1.6 0.00 0.03 0.03 93 1028.9
20260502105556 8 172 0.0 0.0 0.00 0.03 0.03 93 1028.9
20260502105054 8 172 0.0 0.0 0.00 0.03 0.03 93 1028.3
20260502104551 8 170 0.0 0.0 0.00 0.03 0.03 93 1028.0
20260502104048 8 172 0.0 0.0 0.00 0.03 0.03 92 1028.2
20260502103546 8 172 1.6 1.6 0.00 0.03 0.03 93 1027.9
20260502103044 8 165 0.0 0.0 0.00 0.03 0.03 93 1028.0
20260502102540 8 166 0.0 0.0 0.00 0.03 0.03 92 1028.2
20260502102037 8 163 0.0 0.0 0.00 0.03 0.03 92 1027.8
20260502101535 8 163 0.0 0.0 0.00 0.03 0.03 91 1028.2
20260502101033 8 163 0.0 0.0 0.00 0.03 0.03 91 1028.1
20260502100531 8 163 0.0 0.0 0.00 0.03 0.03 91 1028.2
20260502091506 8 166 0.0 1.6 0.00 0.00 0.00 86 1028.0
20260502091003 8 167 0.0 0.0 0.00 0.00 0.00 86 1027.9
20260502090500 8 151 0.0 0.0 0.00 0.00 0.00 86 1027.5
20260502071354 10 119 0.0 0.0 0.00 0.00 0.00 75 1027.8
20260502070853 9 171 0.0 0.0 0.00 0.00 0.00 75 1027.9
20260502070350 9 139 0.0 0.0 0.00 0.00 0.00 76 1027.8
20260502065849 9 139 0.0 0.0 0.00 0.00 0.00 77 1027.9
20260502065347 9 134 0.0 0.0 0.00 0.00 0.00 76 1027.7
20260502064844 10 122 1.6 1.6 0.00 0.00 0.00 74 1027.8
20260502064342 9 149 0.0 0.0 0.00 0.00 0.00 74 1027.9
20260502063839 9 154 0.0 0.0 0.00 0.00 0.00 76 1027.8
20260502063337 10 140 0.0 0.0 0.00 0.00 0.00 76 1027.6
20260502062834 10 128 0.0 0.0 0.00 0.00 0.00 73 1027.7
20260502062331 10 129 0.0 1.6 0.00 0.00 0.00 72 1028.0
20260502061830 10 152 0.0 0.0 0.00 0.00 0.00 72 1028.0
20260502061327 10 161 0.0 0.0 0.00 0.00 0.00 72 1027.9
20260502060823 10 160 0.0 0.0 0.00 0.00 0.00 71 1028.0
20260502060318 10 153 0.0 0.0 0.00 0.00 0.00 71 1027.9
20260502055816 10 137 0.0 0.0 0.00 0.00 0.00 70 1027.9
20260502055314 10 126 0.0 1.6 0.00 0.00 0.00 70 1027.8
20260502054813 10 138 0.0 0.0 0.00 0.00 0.00 69 1027.7
20260502054310 10 122 0.0 0.0 0.00 0.00 0.00 68 1027.6
20260502053808 10 143 0.0 1.6 0.00 0.00 0.00 67 1027.8
20260502053305 11 133 0.0 0.0 0.00 0.00 0.00 67 1027.8
20260502052803 11 99 0.0 0.0 0.00 0.00 0.00 67 1028.0
20260502052300 11 212 0.0 0.0 0.00 0.00 0.00 66 1027.9
20260502051758 11 210 1.6 3.2 0.00 0.00 0.00 67 1027.9
20260502051257 11 121 0.0 0.0 0.00 0.00 0.00 66 1027.9
20260502050752 11 124 0.0 1.6 0.00 0.00 0.00 66 1028.1
20260502050248 11 62 1.6 1.6 0.00 0.00 0.00 67 1028.1
20260502045746 11 114 1.6 1.6 0.00 0.00 0.00 67 1028.1
20260502045242 11 193 0.0 0.0 0.00 0.00 0.00 66 1028.0
20260502044739 11 41 0.0 0.0 0.00 0.00 0.00 67 1027.9
20260502044235 11 194 0.0 0.0 0.00 0.00 0.00 67 1028.3
20260502043733 11 127 1.6 1.6 0.00 0.00 0.00 67 1028.1
20260502043231 10 101 3.2 3.2 0.00 0.00 0.00 67 1028.1
20260502042730 10 111 0.0 1.6 0.00 0.00 0.00 68 1028.1
20260502042227 10 158 0.0 0.0 0.00 0.00 0.00 67 1028.1
20260502041725 10 102 0.0 0.0 0.00 0.00 0.00 68 1027.9
20260502041222 10 164 0.0 0.0 0.00 0.00 0.00 67 1028.2
20260502040719 10 175 1.6 1.6 0.00 0.00 0.00 68 1028.1
20260502040216 10 122 0.0 1.6 0.00 0.00 0.00 68 1028.2
20260502035712 10 159 0.0 1.6 0.00 0.00 0.00 67 1028.0
20260502035209 10 120 1.6 1.6 0.00 0.00 0.00 67 1028.1
20260502034706 10 131 1.6 1.6 0.00 0.00 0.00 67 1028.1
20260502034205 10 79 1.6 1.6 0.00 0.00 0.00 67 1028.1
20260502033702 10 124 1.6 1.6 0.00 0.00 0.00 67 1028.2
20260502033200 10 128 1.6 1.6 0.00 0.00 0.00 67 1028.1
20260502032656 11 125 0.0 0.0 0.00 0.00 0.00 66 1028.1
20260502032152 11 270 1.6 3.2 0.00 0.00 0.00 65 1028.2
20260502031650 10 110 3.2 3.2 0.00 0.00 0.00 65 1028.4
20260502031148 10 126 1.6 1.6 0.00 0.00 0.00 66 1028.2
20260502030646 11 135 1.6 1.6 0.00 0.00 0.00 65 1028.1
20260502030144 11 176 0.0 0.0 0.00 0.00 0.00 65 1028.1
20260502025641 11 178 1.6 1.6 0.00 0.00 0.00 65 1028.4
20260502025139 11 76 0.0 1.6 0.00 0.00 0.00 64 1028.2
20260502024637 11 97 1.6 1.6 0.00 0.00 0.00 64 1028.2
20260502024134 11 92 6.4 6.4 0.00 0.00 0.00 64 1028.1
20260502023632 11 110 1.6 1.6 0.00 0.00 0.00 63 1028.1
20260502023129 11 255 0.0 1.6 0.00 0.00 0.00 62 1028.2
20260502022626 11 254 3.2 4.8 0.00 0.00 0.00 62 1028.0
20260502022123 11 272 1.6 3.2 0.00 0.00 0.00 61 1028.0
20260502021620 11 220 3.2 3.2 0.00 0.00 0.00 61 1028.3
20260502021117 11 299 1.6 4.8 0.00 0.00 0.00 60 1028.3
20260502020615 11 211 0.0 1.6 0.00 0.00 0.00 60 1028.2
20260502020112 11 183 3.2 3.2 0.00 0.00 0.00 59 1028.3
20260502015610 12 92 3.2 3.2 0.00 0.00 0.00 59 1028.2
20260502015106 12 147 1.6 1.6 0.00 0.00 0.00 58 1028.1
20260502014603 12 119 1.6 1.6 0.00 0.00 0.00 56 1028.1
20260502014100 12 80 3.2 4.8 0.00 0.00 0.00 56 1028.0
20260502013555 12 39 1.6 1.6 0.00 0.00 0.00 55 1028.0
20260502013052 12 304 3.2 3.2 0.00 0.00 0.00 54 1028.0
20260502012549 12 214 0.0 0.0 0.00 0.00 0.00 53 1028.0
20260502012047 12 223 8.0 11.3 0.00 0.00 0.00 51 1028.1
20260502011543 12 125 3.2 9.7 0.00 0.00 0.00 51 1027.8
20260502011039 12 124 0.0 1.6 0.00 0.00 0.00 49 1027.7
20260502010537 12 134 1.6 3.2 0.00 0.00 0.00 48 1027.7
20260502010033 12 290 1.6 3.2 0.00 0.00 0.00 46 1027.8
20260502005531 13 359 1.6 3.2 0.00 0.00 0.00 45 1027.7
20260502005029 13 137 4.8 6.4 0.00 0.00 0.00 45 1027.5
20260502004524 13 116 1.6 1.6 0.00 0.00 0.00 45 1027.6
20260502004021 13 210 0.0 0.0 0.00 0.00 0.00 44 1027.5
20260502003519 13 155 1.6 1.6 0.00 0.00 0.00 45 1027.4
20260502003015 13 250 1.6 1.6 0.00 0.00 0.00 46 1027.3
20260502002512 12 138 0.0 1.6 0.00 0.00 0.00 47 1027.4
20260502002010 11 141 1.6 1.6 0.00 0.00 0.00 53 1027.2
20260502001507 11 113 1.6 1.6 0.00 0.00 0.00 62 1026.9
20260502001004 10 105 1.6 1.6 0.00 0.00 0.00 60 1026.9
20260502000503 10 110 1.6 1.6 0.00 0.00 0.00 61 1026.8
20260501235959 11 110 1.6 1.6 0.00 0.00 0.00 58 1026.8
20260501235455 11 113 1.6 1.6 0.00 0.00 0.00 57 1026.7
20260501234950 11 111 0.0 1.6 0.00 0.00 0.00 57 1026.7
20260501234447 11 107 1.6 3.2 0.00 0.00 0.00 54 1026.5
20260501233945 12 138 1.6 1.6 0.00 0.00 0.00 50 1026.4
20260501233443 12 115 1.6 1.6 0.00 0.00 0.00 48 1026.4
20260501232938 13 134 1.6 1.6 0.00 0.00 0.00 47 1026.4
20260501232435 13 152 0.0 0.0 0.00 0.00 0.00 46 1026.4
20260501231933 14 134 1.6 1.6 0.00 0.00 0.00 42 1026.3
20260501231431 15 184 0.0 0.0 0.00 0.00 0.00 42 1026.4
20260501230929 15 190 0.0 1.6 0.00 0.00 0.00 37 1026.2
20260501230428 15 233 0.0 1.6 0.00 0.00 0.00 36 1026.2
20260501225925 15 324 4.8 6.4 0.00 0.00 0.00 34 1026.2
20260501225422 16 217 0.0 0.0 0.00 0.00 0.00 35 1026.0
20260501224917 16 236 0.0 0.0 0.00 0.00 0.00 36 1025.9
20260501224415 16 232 1.6 1.6 0.00 0.00 0.00 34 1026.0
20260501223912 16 148 3.2 4.8 0.00 0.00 0.00 34 1026.1
20260501223408 16 264 3.2 4.8 0.00 0.00 0.00 34 1025.9
20260501222904 16 61 0.0 1.6 0.00 0.00 0.00 35 1025.9
20260501222402 16 256 0.0 1.6 0.00 0.00 0.00 33 1025.8
20260501221858 17 276 1.6 4.8 0.00 0.00 0.00 34 1026.0
20260501221355 17 230 0.0 1.6 0.00 0.00 0.00 32 1025.8
20260501220853 17 276 1.6 3.2 0.00 0.00 0.00 32 1026.1
20260501220350 17 286 1.6 1.6 0.00 0.00 0.00 32 1025.9
20260501215846 17 265 1.6 1.6 0.00 0.00 0.00 34 1025.9
20260501215343 17 264 6.4 6.4 0.00 0.00 0.00 32 1026.1
20260501214838 17 267 1.6 1.6 0.00 0.00 0.00 33 1026.1
20260501214334 17 240 4.8 6.4 0.00 0.00 0.00 33 1026.1
20260501213830 17 250 4.8 4.8 0.00 0.00 0.00 33 1026.1
20260501213327 17 227 3.2 4.8 0.00 0.00 0.00 32 1026.2
20260501212822 17 264 6.4 9.7 0.00 0.00 0.00 31 1026.1
20260501212319 17 171 4.8 4.8 0.00 0.00 0.00 32 1025.9
20260501211816 18 269 3.2 4.8 0.00 0.00 0.00 31 1026.0
20260501211314 18 279 4.8 4.8 0.00 0.00 0.00 33 1026.2
20260501210811 17 87 3.2 4.8 0.00 0.00 0.00 33 1025.9
20260501210308 17 283 1.6 1.6 0.00 0.00 0.00 33 1025.9
20260501205804 17 81 3.2 3.2 0.00 0.00 0.00 31 1025.8
20260501205301 17 270 0.0 0.0 0.00 0.00 0.00 34 1025.9
20260501204757 17 197 6.4 11.3 0.00 0.00 0.00 34 1025.9
20260501204254 17 281 1.6 3.2 0.00 0.00 0.00 33 1026.0
20260501203750 17 258 4.8 6.4 0.00 0.00 0.00 32 1025.9
20260501203248 17 265 3.2 4.8 0.00 0.00 0.00 33 1026.0
20260501202745 17 292 3.2 3.2 0.00 0.00 0.00 35 1025.9
20260501202241 17 251 0.0 0.0 0.00 0.00 0.00 32 1025.9
20260501201739 17 265 6.4 9.7 0.00 0.00 0.00 35 1025.8
20260501201235 17 262 4.8 9.7 0.00 0.00 0.00 33 1026.0
20260501200732 17 278 6.4 6.4 0.00 0.00 0.00 32 1026.1
20260501200229 17 344 3.2 4.8 0.00 0.00 0.00 33 1026.1
20260501195726 17 70 0.0 1.6 0.00 0.00 0.00 31 1025.7
20260501195223 17 92 1.6 3.2 0.00 0.00 0.00 33 1026.0
20260501194719 16 203 0.0 0.0 0.00 0.00 0.00 34 1026.0
20260501194214 17 277 4.8 11.3 0.00 0.00 0.00 33 1026.0
20260501193711 17 219 4.8 6.4 0.00 0.00 0.00 34 1025.9
20260501193209 17 267 3.2 4.8 0.00 0.00 0.00 34 1026.2
20260501192706 17 294 4.8 4.8 0.00 0.00 0.00 33 1026.2
20260501192204 17 225 4.8 9.7 0.00 0.00 0.00 35 1026.3
20260501191701 17 243 4.8 9.7 0.00 0.00 0.00 31 1026.2
20260501191158 16 192 4.8 6.4 0.00 0.00 0.00 34 1026.1
20260501190654 17 192 6.4 6.4 0.00 0.00 0.00 32 1026.4
20260501190150 17 254 3.2 4.8 0.00 0.00 0.00 33 1026.2
20260501185646 17 261 4.8 6.4 0.00 0.00 0.00 37 1026.3
20260501185142 16 251 4.8 6.4 0.00 0.00 0.00 35 1026.7
20260501184638 15 267 4.8 4.8 0.00 0.00 0.00 33 1026.5
20260501184133 16 267 8.0 12.9 0.00 0.00 0.00 36 1026.5
20260501183630 16 329 3.2 9.7 0.00 0.00 0.00 34 1026.6
20260501183126 16 268 1.6 1.6 0.00 0.00 0.00 41 1026.7
20260501182623 16 273 4.8 4.8 0.00 0.00 0.00 37 1026.6
20260501182120 16 256 4.8 6.4 0.00 0.00 0.00 37 1026.4
20260501181617 16 270 11.3 14.5 0.00 0.00 0.00 37 1026.8
20260501181114 16 303 9.7 12.9 0.00 0.00 0.00 33 1026.7
20260501180612 16 252 3.2 4.8 0.00 0.00 0.00 32 1026.5
20260501180108 15 248 3.2 4.8 0.00 0.00 0.00 34 1026.6
20260501175605 15 267 6.4 6.4 0.00 0.00 0.00 35 1026.7
20260501175102 15 187 3.2 6.4 0.00 0.00 0.00 38 1026.6
20260501174559 15 184 6.4 6.4 0.00 0.00 0.00 37 1026.7
20260501174056 15 313 12.9 17.7 0.00 0.00 0.00 36 1026.7
20260501173553 15 259 4.8 6.4 0.00 0.00 0.00 41 1026.8
20260501173050 15 261 3.2 4.8 0.00 0.00 0.00 40 1026.7
20260501172545 15 275 3.2 6.4 0.00 0.00 0.00 41 1027.0
20260501172041 14 242 3.2 3.2 0.00 0.00 0.00 45 1026.9
20260501171537 14 268 4.8 4.8 0.00 0.00 0.00 42 1027.0
20260501171034 15 303 3.2 4.8 0.00 0.00 0.00 40 1027.1
20260501170531 15 279 8.0 9.7 0.00 0.00 0.00 38 1027.2
20260501170028 15 36 4.8 6.4 0.00 0.00 0.00 43 1027.1
20260501165526 15 305 3.2 4.8 0.00 0.00 0.00 42 1027.0
20260501165023 14 220 1.6 3.2 0.00 0.00 0.00 42 1027.0
20260501164521 14 267 8.0 9.7 0.00 0.00 0.00 45 1027.1
20260501164017 15 225 4.8 4.8 0.00 0.00 0.00 41 1027.3
20260501163514 15 357 3.2 4.8 0.00 0.00 0.00 39 1027.2
20260501163011 15 8 3.2 6.4 0.00 0.00 0.00 44 1027.3
20260501162507 15 188 6.4 6.4 0.00 0.00 0.00 42 1027.2
20260501162004 15 207 3.2 3.2 0.00 0.00 0.00 44 1027.1
20260501161501 13 321 3.2 4.8 0.00 0.00 0.00 42 1027.4
20260501160958 13 265 3.2 3.2 0.00 0.00 0.00 46 1027.3
20260501160455 13 277 4.8 4.8 0.00 0.00 0.00 48 1027.3
20260501155952 13 254 8.0 11.3 0.00 0.00 0.00 45 1027.2